Location: Unspecified
(0.0000°N, 0.0000°E)
Time: 11:56:07
(UTC+02:00)

Sapphire - Visible Passes

Search period start: 24 May 2016 00:00
Search period end: 03 June 2016 00:00
Orbit: 785 x 797 km, 67.1° (Epoch: 23 May)

Date Brightness Start Highest point End Pass type
(mag) Time Alt. Az. Time Alt. Az. Time Alt. Az.
24 May ? 22:37:05 10° NNW 22:38:23 18° NNW 22:38:23 18° NNW visible
25 May ? 22:06:41 10° N 22:09:12 27° N 22:09:12 27° N visible
26 May ? 21:36:32 10° N 21:40:05 29° NE 21:40:05 29° NE visible
27 May ? 21:06:42 10° NNE 21:10:42 21° ENE 21:11:02 21° ENE visible
27 May ? 22:49:28 10° NW 22:51:49 20° WNW 22:51:49 20° WNW visible
28 May ? 20:37:30 10° NE 20:40:06 14° ENE 20:42:03 11° E visible
28 May ? 22:18:16 10° NW 22:22:50 38° W 22:22:50 38° W visible
29 May ? 21:47:20 10° NNW 21:52:39 60° WSW 21:53:54 47° SSW visible
30 May ? 21:16:40 10° NNW 21:22:04 87° ENE 21:25:02 28° SSE visible
31 May ? 20:46:13 10° N 20:51:29 56° ENE 20:56:10 13° SSE visible
01 Jun ? 20:15:59 10° N 20:20:54 36° ENE 20:25:49 10° SE visible
01 Jun ? 22:01:10 10° WNW 22:04:02 15° WSW 22:06:55 10° SW visible
02 Jun ? 21:29:17 10° WNW 21:33:26 23° WSW 21:37:35 10° SSW visible
